SCP
0 0 0 0 0 0 0 0 0 0 0 0 0 0 0 0 -0 -0 -0 -0 -0 -0 -0 -0 0 -0 0 0 0 0 0 0 0 0 0 -0 -0 -0 0 0 0 0 0
0 0 0 0 0 0 0 0 0 0 0 0 0 0 0 0 0 -0 -0 -0 -0 -0 -0 -0 -0 -0 -0 0 0 0 0 0 0 0 -0 -0 -0 -0 -0 0 0 0 0
0 0 0 0 0 0 0 0 0 0 0 0 0 0 0 0 -0 -0 -0 -0 -0 -0 -0 -0 -0 -0 -0 -0 -0 0 0 0 0 0 -0 -0 0 -0 -0 -0 0 0 0
0 0 0 0 0 0 0 0 0 0 0 0 0 0 -0 -0 -0 -0 -0 -0 -0 -0 0 0 0 0 0 0 0 -0 -0 -0 0 0 0 -0 -0 -0 -0 -0 -0 -0 0
0 0 0 0 0 0 0 0 0 0 0 0 0 0 -0 -0 -0 -0 0 -0 -0 0 0 0 0 0 0 0 0 0 0 0 0 -0 -0 -0 -0 -0 0 -0 -0 -0 -0
0 0 0 0 0 0 0 0 0 0 0 0 0 0 -0 -0 -0 0 0 0 0 0 0 0 0 0 0 0 0 0 0 0 0 0 0 0 -0 -0 -0 0 0 -0 -0
0 0 0 0 0 0 0 0 0 0 0 0 0 0 0 -0 -0 -0 0 0 0 0 0 0 0 0 0 0 0 0 0 0 0 0 0 0 0 0 0 0 0 0 0
0 0 0 0 0 0 0 0 0 0 0 0 0 0 0 0 -0 0 0 0 0 0 0 0 0 0 0 0 0 0 0 0 0 0 0 0 0 0 0 0 0 0 0
0 0 0 0 0 0 0 0 0 0 0 0 0 0 0 0 0 0 0 0 0 0 0 0 0 0 0 0 0 0 0 0 0 0 0 0 0 0 0 0 0 0 0
0 0 0 0 0 0 0 0 0 0 0 0 0 0 0 0 0 0 0 0 0 0 0 0 0 0 0 0 0 0 0 0 0 0 0 0 0 0 0 0 0 0 0
0 0 0 0 0 0 0 0 0 0 0 0 0 0 0 0 0 -0 0 0 0 0 0 0 0 0 0 0 0 0 0 0 0 0 0 0 0 0 0 0 0 0 0
0 0 0 0 0 0 0 0 0 0 0 0 0 0 0 0 0 0 -0 -0 0 0 0 0 0 0 0 0 0 0 0 0 0 0 0 0 0 0 0 0 0 0 0
0 0 0 0 0 0 0 0 0 0 0 0 0 0 0 0 0 -0 -0 -0 0 0 0 0 -0 -0 -0 0 0 -0 0 0 0 0 0 0 0 0 0 0 0 0 0
0 0 0 0 0 0 0 0 0 0 0 0 0 0 0 0 0 0 0 0 0 0 0 0 0 0 -0 0 0 0 0 0 0 0 0 0 0 0 0 0 0 0 0
0 0 0 0 0 0 0 0 0 0 0 0 0 0 0 0 0 -0 -0 -0 -0 -0 -0 0 0 0 0 0 0 0 0 0 0 0 0 0 0 0 0 0 0 0 0
0 0 0 0 0 0 0 0 0 0 0 0 0 0 0 0 -0 -0 -0 -0 0 0 0 0 0 0 0 0 0 0 0 0 0 0 0 0 0 0 0 0 0 0 0
0 0 0 0 0 0 0 0 0 0 0 0 0 0 0 0 0 -0 0 0 0 0 0 0 0 0 0 0 0 0 0 0 0 0 0 0 0 0 0 0 0 0 0
0 0 0 0 0 0 0 0 0 0 0 0 0 0 0 0 0 0 0 0 0 0 0 0 0 0 0 0 0 0 0 0 0 0 0 0 0 0 0 0 0 0 0
0 0 0 0 0 0 0 0 0 0 0 0 0 0 0 0 0 0 0 0 0 0 0 0 0 0 0 0 0 0 0 0 0 0 0 0 0 0 0 0 0 0 0
0 0 0 0 0 0 0 0 0 0 0 0 0 0 0 0 0 0 0 0 0 0 0 0 0 0 0 0 0 0 0 0 0 0 0 0 0 0 0 0 0 0 0
0 0 0 0 0 0 0 0 0 0 0 0 0 0 0 0 0 0 0 0 0 0 0 0 0 0 0 0 0 0 0 0 0 0 0 0 0 0 0 0 0 0 0
0 0 0 0 0 0 0 0 0 0 0 0 0 0 0 0 0 0 0 0 0 0 0 0 0 0 0 0 0 0 0 0 0 0 0 0 0 0 0 0 0 0 0
0 0 0 0 0 0 0 0 0 0 0 -0 0 0 0 0 0 0 0 0 0 0 0 0 0 0 0 0 -0 -0 0 0 0 0 0 0 0 0 0 0 0 0 0
0 0 0 0 0 0 0 0 0 0 0 0 0 -0 0 0 0 0 0 0 0 0 0 0 0 0 0 0 0 0 0 0 0 0 0 0 0 0 0 0 0 0 0
0 0 0 0 0 0 0 0 0 0 -0 0 -0 -0 -0 0 0 0 0 0 0 0 0 0 0 0 0 0 0 0 0 0 -0 -0 0 0 0 0 0 0 0 0 0
0 0 0 0 0 0 0 0 0 -0 -0 -0 -0 -0 -0 0 0 0 0 0 0 0 0 0 0 0 0 0 0 0 0 0 0 0 0 0 0 0 0 0 -0 0 0
Wind_Speed_500mb
4 4 8 13 17 20 24 28 31 33 35 37 40 44 51 59 64 69 73 76 79 82 82 83 82 78 76 74 72 71 72 70 85 99 96 93 89 87 81 72 69 66 66
8 9 12 17 21 25 29 32 35 37 39 41 46 51 57 63 69 76 82 85 90 92 91 90 93 88 86 81 79 81 83 82 85 101 99 99 99 92 91 87 80 76 73
14 16 18 22 26 33 37 40 43 45 46 50 58 65 69 75 81 84 87 90 91 92 94 96 96 96 99 98 91 88 87 87 89 97 109 99 104 102 102 97 93 88 81
23 25 27 30 36 42 46 49 52 52 53 58 65 71 77 81 82 82 84 87 90 93 95 95 97 98 98 97 95 93 85 83 85 88 99 93 92 102 100 101 104 97 95
31 35 36 40 43 46 50 54 56 55 58 64 69 73 78 81 83 86 88 92 95 97 98 97 97 95 92 83 73 82 79 80 80 74 80 75 73 66 79 87 94 94 101
39 43 47 46 44 47 56 59 61 59 65 70 74 79 83 83 83 85 85 88 92 93 95 93 90 89 87 78 68 69 71 79 85 81 84 82 83 69 64 68 80 79 87
48 50 50 48 49 52 58 64 63 65 71 74 78 82 86 87 87 88 84 84 87 87 86 86 85 79 77 76 76 69 71 73 74 82 93 100 92 83 72 73 78 75 88
57 52 48 49 54 58 63 66 63 67 70 74 80 84 87 87 85 84 82 79 82 80 78 77 75 76 69 62 64 69 71 69 66 65 71 86 93 97 87 84 88 98 107
57 51 50 52 58 61 67 64 63 66 70 76 81 85 86 84 80 79 77 76 77 78 74 71 68 69 63 56 62 71 76 77 70 62 66 71 74 78 78 83 93 87 98
61 58 57 59 61 63 63 61 63 67 72 76 80 79 79 81 75 74 69 65 70 74 71 72 72 64 58 58 65 73 84 84 84 84 76 71 71 76 76 70 85 86 95
65 63 61 59 60 59 62 61 63 66 70 74 79 78 74 72 74 69 61 56 66 73 76 76 77 72 65 63 64 71 80 74 78 85 92 94 90 78 75 79 80 78 95
65 62 58 56 58 62 63 62 60 64 68 73 77 79 76 72 67 64 56 53 57 65 78 83 84 74 73 76 80 86 87 85 85 77 84 98 101 101 98 93 88 86 93
63 60 58 57 60 59 60 59 60 60 64 70 74 76 76 71 71 68 61 63 64 66 71 74 73 73 71 71 76 73 71 76 81 87 94 98 97 99 98 92 91 94 93
61 59 59 61 62 55 57 56 57 57 61 64 67 71 73 70 68 64 71 76 74 74 78 76 77 75 72 62 57 54 56 63 72 82 88 92 89 87 90 90 86 84 84
61 60 60 62 56 54 54 53 52 53 56 58 59 58 58 61 58 56 61 67 69 67 70 72 65 62 62 57 54 52 51 52 61 63 71 77 81 83 83 77 78 84 88
64 62 62 59 53 54 54 54 44 47 49 47 48 38 45 43 45 50 55 56 59 59 57 57 56 55 56 57 59 59 58 59 63 61 60 67 70 73 75 76 73 73 78
64 63 59 54 54 53 52 53 59 42 40 45 43 40 42 38 44 45 48 50 54 50 49 50 52 53 55 56 57 58 61 57 58 54 58 58 57 64 69 73 78 80 76
62 59 56 54 54 52 51 52 51 51 53 38 39 42 40 45 40 40 45 47 49 49 52 54 56 57 58 59 58 59 60 59 56 55 55 55 55 60 66 70 70 65 71
56 54 54 55 52 52 51 50 47 46 47 46 37 37 37 40 34 34 38 40 46 49 52 54 56 58 61 61 60 60 60 59 57 54 51 52 54 57 62 63 64 62 54
56 54 55 54 51 50 49 49 44 43 42 40 37 37 38 43 35 37 38 40 43 47 49 51 53 55 59 62 63 62 61 61 59 56 53 49 48 45 47 48 49 52 49
57 57 56 54 50 48 48 45 41 40 39 36 33 32 32 37 37 39 40 40 43 45 48 49 50 52 54 59 62 64 66 65 60 57 54 50 48 47 42 38 35 30 28
58 57 53 53 50 50 45 42 39 38 35 34 31 27 31 31 33 36 37 38 39 40 43 47 47 47 50 53 58 62 66 69 63 58 53 48 46 43 38 35 31 26 22
57 55 54 51 50 47 43 40 37 36 33 31 33 32 30 32 33 37 39 39 40 40 41 43 44 44 43 46 48 52 61 68 62 52 49 45 41 38 35 31 26 21 14
53 50 48 46 44 42 39 36 35 34 33 32 32 34 36 37 38 41 41 42 41 39 40 40 40 41 41 41 45 45 49 58 54 48 43 40 37 33 29 26 22 18 13
42 42 41 39 38 37 37 36 35 35 35 35 35 38 41 40 41 41 41 41 40 39 36 35 36 37 38 38 39 42 42 49 49 46 42 37 33 30 28 26 23 20 17
34 34 37 38 38 38 38 38 37 37 37 37 38 39 40 38 38 38 39 38 38 35 33 31 31 31 32 32 32 36 39 41 41 41 39 36 35 35 33 31 28 27 24
Wind_Direction_500mb
222 294 331 336 334 335 331 330 328 328 326 325 326 327 328 327 325 323 322 320 318 316 313 311 307 304 300 296 292 289 285 283 284 287 289 292 292 294 295 293 293 290 280
254 286 300 311 318 320 323 325 324 325 324 323 323 322 322 321 320 320 319 319 318 316 314 311 309 307 302 299 295 290 287 286 286 287 287 285 288 288 289 290 289 287 288
256 274 292 302 312 318 320 321 321 320 320 320 321 323 322 322 321 320 318 317 315 313 312 310 307 306 305 305 302 297 293 289 287 287 289 289 286 287 288 286 285 284 284
261 274 286 297 306 311 314 316 316 316 316 318 320 321 321 320 318 317 315 314 312 310 307 303 300 298 297 296 297 297 296 293 290 288 287 289 288 286 286 287 286 285 284
265 274 280 286 293 301 307 310 310 310 312 315 316 317 318 318 318 317 315 314 312 309 306 303 300 297 293 290 288 289 290 289 287 285 285 287 284 286 285 288 286 287 283
268 269 271 275 284 294 303 307 308 308 312 315 317 318 319 318 318 315 314 314 311 307 306 304 302 300 297 293 286 280 276 278 280 284 283 281 282 280 280 281 285 285 284
266 267 269 275 285 291 299 304 304 308 312 315 317 318 318 319 319 318 318 313 310 308 307 306 304 301 299 298 294 288 281 273 270 272 275 275 281 278 277 274 271 276 276
266 265 269 278 283 287 295 298 300 306 310 314 316 317 318 321 321 319 316 313 309 308 308 307 305 305 307 302 301 298 294 292 291 286 278 277 276 277 280 280 279 273 270
261 261 268 275 277 283 289 292 298 305 311 315 317 318 319 319 321 320 318 313 311 311 312 311 314 313 306 297 295 295 296 294 294 284 279 279 278 277 275 278 275 274 272
260 257 261 266 273 283 289 291 300 307 312 316 316 316 318 321 323 320 317 315 311 313 317 319 316 305 300 295 292 292 291 292 294 296 297 296 294 294 289 275 270 273 270
254 255 260 268 279 286 289 292 300 308 313 316 315 316 318 323 324 323 321 314 312 316 312 308 309 307 298 294 291 290 288 294 295 291 288 287 289 289 286 283 275 271 268
257 259 266 275 282 288 288 294 302 309 313 314 314 316 322 326 328 328 323 314 311 309 309 309 309 305 300 296 292 291 290 287 287 284 282 281 283 283 286 286 279 271 268
260 265 271 278 284 286 285 293 303 310 313 314 314 318 321 328 332 334 331 328 318 312 312 311 305 303 301 296 292 292 289 288 288 287 284 283 285 287 288 283 282 280 275
265 270 275 281 285 282 285 295 304 311 312 313 315 322 327 329 329 335 336 326 318 319 323 315 302 300 302 306 308 306 298 288 286 286 283 282 282 280 279 280 278 278 273
271 275 280 283 283 281 287 296 305 310 311 316 319 318 317 320 329 326 321 323 322 316 308 306 313 316 315 318 320 320 316 310 307 307 301 297 292 290 289 288 281 281 271
273 278 281 281 279 282 289 296 303 308 311 310 310 306 311 314 321 322 324 326 320 322 323 322 323 325 326 327 328 327 327 327 327 316 308 299 299 291 285 288 284 277 276
276 279 279 277 278 283 289 298 305 307 305 305 307 311 317 318 324 326 327 330 335 337 338 341 341 340 338 336 335 334 333 333 332 325 313 301 297 292 286 287 290 290 295
278 277 275 274 277 283 291 297 300 306 307 307 305 312 319 320 329 330 334 334 335 347 353 355 352 349 346 342 339 339 338 338 337 334 325 314 307 300 297 296 298 298 298
272 272 273 274 277 282 287 291 295 298 301 305 307 303 313 316 328 337 334 338 344 349 353 356 356 355 354 350 345 342 342 341 339 336 333 329 325 317 308 304 304 303 297
274 273 271 272 274 279 284 286 290 293 295 298 305 308 314 316 338 337 340 345 349 349 349 351 354 354 355 354 353 350 346 344 341 339 336 332 329 323 314 307 302 298 298
272 269 270 270 274 276 277 280 284 286 290 294 301 305 311 315 326 331 335 343 345 344 344 346 349 351 352 354 354 356 356 349 344 342 340 339 338 336 332 327 320 312 309
272 270 268 271 272 272 273 275 278 280 284 290 295 298 302 307 315 318 325 332 334 337 337 338 343 349 352 353 354 357 359 354 349 345 343 343 344 344 344 342 339 333 317
269 269 270 270 269 266 266 269 272 275 280 285 291 296 297 301 308 312 318 323 326 330 331 332 336 341 348 354 355 358 1 357 350 348 347 348 350 351 353 353 355 353 349
273 272 270 266 262 263 264 265 269 273 278 282 285 291 296 301 307 310 315 317 320 324 326 328 333 337 341 348 355 356 2 360 355 358 357 357 360 3 5 8 14 18 25
282 278 273 267 264 264 263 264 267 271 276 281 285 290 293 299 303 306 311 313 319 323 325 327 331 335 341 343 349 354 2 1 2 7 11 14 15 20 26 29 33 39 44
288 280 278 273 269 269 267 267 268 271 276 280 286 290 293 300 304 309 310 314 318 323 329 331 332 335 340 342 349 355 6 3 2 12 18 24 32 38 40 44 49 53 56
Wind_Speed_850mb
4 4 8 13 17 20 24 28 31 33 35 37 40 44 51 59 64 69 73 76 79 82 82 83 82 78 76 74 72 71 72 70 85 99 96 93 89 87 81 72 69 66 66
8 9 12 17 21 25 29 32 35 37 39 41 46 51 57 63 69 76 82 85 90 92 91 90 93 88 86 81 79 81 83 82 85 101 99 99 99 92 91 87 80 76 73
14 16 18 22 26 33 37 40 43 45 46 50 58 65 69 75 81 84 87 90 91 92 94 96 96 96 99 98 91 88 87 87 89 97 109 99 104 102 102 97 93 88 81
23 25 27 30 36 42 46 49 52 52 53 58 65 71 77 81 82 82 84 87 90 93 95 95 97 98 98 97 95 93 85 83 85 88 99 93 92 102 100 101 104 97 95
31 35 36 40 43 46 50 54 56 55 58 64 69 73 78 81 83 86 88 92 95 97 98 97 97 95 92 83 73 82 79 80 80 74 80 75 73 66 79 87 94 94 101
39 43 47 46 44 47 56 59 61 59 65 70 74 79 83 83 83 85 85 88 92 93 95 93 90 89 87 78 68 69 71 79 85 81 84 82 83 69 64 68 80 79 87
48 50 50 48 49 52 58 64 63 65 71 74 78 82 86 87 87 88 84 84 87 87 86 86 85 79 77 76 76 69 71 73 74 82 93 100 92 83 72 73 78 75 88
57 52 48 49 54 58 63 66 63 67 70 74 80 84 87 87 85 84 82 79 82 80 78 77 75 76 69 62 64 69 71 69 66 65 71 86 93 97 87 84 88 98 107
57 51 50 52 58 61 67 64 63 66 70 76 81 85 86 84 80 79 77 76 77 78 74 71 68 69 63 56 62 71 76 77 70 62 66 71 74 78 78 83 93 87 98
61 58 57 59 61 63 63 61 63 67 72 76 80 79 79 81 75 74 69 65 70 74 71 72 72 64 58 58 65 73 84 84 84 84 76 71 71 76 76 70 85 86 95
65 63 61 59 60 59 62 61 63 66 70 74 79 78 74 72 74 69 61 56 66 73 76 76 77 72 65 63 64 71 80 74 78 85 92 94 90 78 75 79 80 78 95
65 62 58 56 58 62 63 62 60 64 68 73 77 79 76 72 67 64 56 53 57 65 78 83 84 74 73 76 80 86 87 85 85 77 84 98 101 101 98 93 88 86 93
63 60 58 57 60 59 60 59 60 60 64 70 74 76 76 71 71 68 61 63 64 66 71 74 73 73 71 71 76 73 71 76 81 87 94 98 97 99 98 92 91 94 93
61 59 59 61 62 55 57 56 57 57 61 64 67 71 73 70 68 64 71 76 74 74 78 76 77 75 72 62 57 54 56 63 72 82 88 92 89 87 90 90 86 84 84
61 60 60 62 56 54 54 53 52 53 56 58 59 58 58 61 58 56 61 67 69 67 70 72 65 62 62 57 54 52 51 52 61 63 71 77 81 83 83 77 78 84 88
64 62 62 59 53 54 54 54 44 47 49 47 48 38 45 43 45 50 55 56 59 59 57 57 56 55 56 57 59 59 58 59 63 61 60 67 70 73 75 76 73 73 78
64 63 59 54 54 53 52 53 59 42 40 45 43 40 42 38 44 45 48 50 54 50 49 50 52 53 55 56 57 58 61 57 58 54 58 58 57 64 69 73 78 80 76
62 59 56 54 54 52 51 52 51 51 53 38 39 42 40 45 40 40 45 47 49 49 52 54 56 57 58 59 58 59 60 59 56 55 55 55 55 60 66 70 70 65 71
56 54 54 55 52 52 51 50 47 46 47 46 37 37 37 40 34 34 38 40 46 49 52 54 56 58 61 61 60 60 60 59 57 54 51 52 54 57 62 63 64 62 54
56 54 55 54 51 50 49 49 44 43 42 40 37 37 38 43 35 37 38 40 43 47 49 51 53 55 59 62 63 62 61 61 59 56 53 49 48 45 47 48 49 52 49
57 57 56 54 50 48 48 45 41 40 39 36 33 32 32 37 37 39 40 40 43 45 48 49 50 52 54 59 62 64 66 65 60 57 54 50 48 47 42 38 35 30 28
58 57 53 53 50 50 45 42 39 38 35 34 31 27 31 31 33 36 37 38 39 40 43 47 47 47 50 53 58 62 66 69 63 58 53 48 46 43 38 35 31 26 22
57 55 54 51 50 47 43 40 37 36 33 31 33 32 30 32 33 37 39 39 40 40 41 43 44 44 43 46 48 52 61 68 62 52 49 45 41 38 35 31 26 21 14
53 50 48 46 44 42 39 36 35 34 33 32 32 34 36 37 38 41 41 42 41 39 40 40 40 41 41 41 45 45 49 58 54 48 43 40 37 33 29 26 22 18 13
42 42 41 39 38 37 37 36 35 35 35 35 35 38 41 40 41 41 41 41 40 39 36 35 36 37 38 38 39 42 42 49 49 46 42 37 33 30 28 26 23 20 17
34 34 37 38 38 38 38 38 37 37 37 37 38 39 40 38 38 38 39 38 38 35 33 31 31 31 32 32 32 36 39 41 41 41 39 36 35 35 33 31 28 27 24
Wind_Direction_850mb
222 294 331 336 334 335 331 330 328 328 326 325 326 327 328 327 325 323 322 320 318 316 313 311 307 304 300 296 292 289 285 283 284 287 289 292 292 294 295 293 293 290 280
254 286 300 311 318 320 323 325 324 325 324 323 323 322 322 321 320 320 319 319 318 316 314 311 309 307 302 299 295 290 287 286 286 287 287 285 288 288 289 290 289 287 288
256 274 292 302 312 318 320 321 321 320 320 320 321 323 322 322 321 320 318 317 315 313 312 310 307 306 305 305 302 297 293 289 287 287 289 289 286 287 288 286 285 284 284
261 274 286 297 306 311 314 316 316 316 316 318 320 321 321 320 318 317 315 314 312 310 307 303 300 298 297 296 297 297 296 293 290 288 287 289 288 286 286 287 286 285 284
265 274 280 286 293 301 307 310 310 310 312 315 316 317 318 318 318 317 315 314 312 309 306 303 300 297 293 290 288 289 290 289 287 285 285 287 284 286 285 288 286 287 283
268 269 271 275 284 294 303 307 308 308 312 315 317 318 319 318 318 315 314 314 311 307 306 304 302 300 297 293 286 280 276 278 280 284 283 281 282 280 280 281 285 285 284
266 267 269 275 285 291 299 304 304 308 312 315 317 318 318 319 319 318 318 313 310 308 307 306 304 301 299 298 294 288 281 273 270 272 275 275 281 278 277 274 271 276 276
266 265 269 278 283 287 295 298 300 306 310 314 316 317 318 321 321 319 316 313 309 308 308 307 305 305 307 302 301 298 294 292 291 286 278 277 276 277 280 280 279 273 270
261 261 268 275 277 283 289 292 298 305 311 315 317 318 319 319 321 320 318 313 311 311 312 311 314 313 306 297 295 295 296 294 294 284 279 279 278 277 275 278 275 274 272
260 257 261 266 273 283 289 291 300 307 312 316 316 316 318 321 323 320 317 315 311 313 317 319 316 305 300 295 292 292 291 292 294 296 297 296 294 294 289 275 270 273 270
254 255 260 268 279 286 289 292 300 308 313 316 315 316 318 323 324 323 321 314 312 316 312 308 309 307 298 294 291 290 288 294 295 291 288 287 289 289 286 283 275 271 268
257 259 266 275 282 288 288 294 302 309 313 314 314 316 322 326 328 328 323 314 311 309 309 309 309 305 300 296 292 291 290 287 287 284 282 281 283 283 286 286 279 271 268
260 265 271 278 284 286 285 293 303 310 313 314 314 318 321 328 332 334 331 328 318 312 312 311 305 303 301 296 292 292 289 288 288 287 284 283 285 287 288 283 282 280 275
265 270 275 281 285 282 285 295 304 311 312 313 315 322 327 329 329 335 336 326 318 319 323 315 302 300 302 306 308 306 298 288 286 286 283 282 282 280 279 280 278 278 273
271 275 280 283 283 281 287 296 305 310 311 316 319 318 317 320 329 326 321 323 322 316 308 306 313 316 315 318 320 320 316 310 307 307 301 297 292 290 289 288 281 281 271
273 278 281 281 279 282 289 296 303 308 311 310 310 306 311 314 321 322 324 326 320 322 323 322 323 325 326 327 328 327 327 327 327 316 308 299 299 291 285 288 284 277 276
276 279 279 277 278 283 289 298 305 307 305 305 307 311 317 318 324 326 327 330 335 337 338 341 341 340 338 336 335 334 333 333 332 325 313 301 297 292 286 287 290 290 295
278 277 275 274 277 283 291 297 300 306 307 307 305 312 319 320 329 330 334 334 335 347 353 355 352 349 346 342 339 339 338 338 337 334 325 314 307 300 297 296 298 298 298
272 272 273 274 277 282 287 291 295 298 301 305 307 303 313 316 328 337 334 338 344 349 353 356 356 355 354 350 345 342 342 341 339 336 333 329 325 317 308 304 304 303 297
274 273 271 272 274 279 284 286 290 293 295 298 305 308 314 316 338 337 340 345 349 349 349 351 354 354 355 354 353 350 346 344 341 339 336 332 329 323 314 307 302 298 298
272 269 270 270 274 276 277 280 284 286 290 294 301 305 311 315 326 331 335 343 345 344 344 346 349 351 352 354 354 356 356 349 344 342 340 339 338 336 332 327 320 312 309
272 270 268 271 272 272 273 275 278 280 284 290 295 298 302 307 315 318 325 332 334 337 337 338 343 349 352 353 354 357 359 354 349 345 343 343 344 344 344 342 339 333 317
269 269 270 270 269 266 266 269 272 275 280 285 291 296 297 301 308 312 318 323 326 330 331 332 336 341 348 354 355 358 1 357 350 348 347 348 350 351 353 353 355 353 349
273 272 270 266 262 263 264 265 269 273 278 282 285 291 296 301 307 310 315 317 320 324 326 328 333 337 341 348 355 356 2 360 355 358 357 357 360 3 5 8 14 18 25
282 278 273 267 264 264 263 264 267 271 276 281 285 290 293 299 303 306 311 313 319 323 325 327 331 335 341 343 349 354 2 1 2 7 11 14 15 20 26 29 33 39 44
288 280 278 273 269 269 267 267 268 271 276 280 286 290 293 300 304 309 310 314 318 323 329 331 332 335 340 342 349 355 6 3 2 12 18 24 32 38 40 44 49 53 56